Regional Weather Roundup
Issued by NWS Grand Forks, ND

Home | Current Version | Previous Version | Graphics & Text | Print | Product List | Glossary On
Versions: 1 2 3 4 5 6 7 8 9 10 11 12 13 14 15 16 17 18 19 20 21 22 23 24 25 26 27 28 29 30 31 32 33 34 35 36 37 38 39 40 41 42 43 44 45 46 47 48 49 50
000
ASUS43 KFGF 301810
RWRFGF
PRAIRIE TO PINES  WEATHER ROUNDUP
NATIONAL WEATHER SERVICE EASTERN NORTH DAKOTA/GRAND FORKS ND
100 PM CDT MON MAY 30 2016

 **SATELLITE DATA USED TO AUGMENT SKY COVER AT AUTOMATED STATIONS**
 *****  WEATHER ACROSS EASTERN NORTH DAKOTA  *****

CITY           SKY/WX    TMP DP  RH WIND       PRES   REMARKS
GRAND FORKS    MOSUNNY   80  50  34 SE6       29.88F
6HR MIN TEMP:  57; 6HR MAX TEMP:  80; 6HR PCP:  0.02;

GRAND FRKS AFB SUNNY     79  52  39 VRB2      29.89S
GRAND FRKS NWS   N/A     81 N/A N/A SE2         N/A
DEVILS LAKE    CLOUDY    76  51  41 E5        29.88F
6HR MIN TEMP:  56; 6HR MAX TEMP:  76;

FARGO          SUNNY     83  48  29 VRB7      29.88F
WAHPETON ARPT  CLEAR     82  45  26 SE13G18   29.90F
$$

 ***** WEATHER ACROSS CENTRAL AND WESTERN NORTH DAKOTA  *****

CITY           SKY/WX    TMP DP  RH WIND       PRES   REMARKS
BISMARCK       MOSUNNY   76  58  53 SE13      29.85F
6HR MIN TEMP:  53; 6HR MAX TEMP:  78;

MINOT          CLOUDY    75  50  41 CALM      29.88R
6HR MIN TEMP:  53; 6HR MAX TEMP:  76;

JAMESTOWN      SUNNY     81  52  36 SE9G17    29.86F
6HR MIN TEMP:  56; 6HR MAX TEMP:  81;

MINOT AFB      CLOUDY    72  51  48 CALM      29.88R
GARRISON         N/A     65  51  60 N13       29.88F
WILLISTON      LGT RAIN  57  52  83 S3        29.94F
6HR MIN TEMP:  48; 6HR MAX TEMP:  59; 6HR PCP:  0.03;

DICKINSON      RAIN      53  51  93 N9        29.91F
6HR MIN TEMP:  50; 6HR MAX TEMP:  62; 6HR PCP:  0.23;

HETTINGER      LGT RAIN  57  53  86 N23G29    29.89S
6HR MIN TEMP:  51; 6HR MAX TEMP:  68; 6HR PCP:  0.01;

$$

 *****  OTHER AIRPORT OBSERVATIONS IN OUR AREA  *****

CITY           SKY/WX    TMP DP  RH WIND       PRES   REMARKS
WALHALLA       FAIR      75  72  88 NE13      29.89S
GRAFTON AIRPOR FAIR      77  54  44 S8        29.90F
VALLEY CITY AR FAIR      81  54  39 S13       29.90F
CANDO          NOT AVBL
CAVALIER APRT  FAIR      77  54  44 SE7       29.89S
GWINNER        FAIR      82  46  28 SE15      29.88F
SHEYENNE NWR     N/A     84  52  32 S8        29.95
ROLLA            N/A     75  36  23 NE5       29.90F
 ***** THE ABOVE OBSERVATIONS ARE NON NWS ARE NOT QUALITY
       CONTROLLED AND MAY MIS-REPORT RAIN FOR SNOW...
$$

  *****  WEATHER ACROSS NORTHERN MINNESOTA  *****

CITY           SKY/WX    TMP DP  RH WIND       PRES   REMARKS
FLAG ISLAND    SUNNY     64  54  68 NW3       29.95R
WARROAD        SUNNY     66  57  72 NE8       29.95S
ROSEAU         SUNNY     73  55  53 SW5       29.93S
HALLOCK        SUNNY     79  48  34 S9        29.89F
THF RVR FALLS  PTSUNNY   73  43  33 SE8       29.93F
6HR MIN TEMP:  55; 6HR MAX TEMP:  73;

BAUDETTE       SUNNY     74  51  44 VRB5      29.94F
6HR MIN TEMP:  50; 6HR MAX TEMP:  74;

WASKISH        SUNNY     75  43  31 SW7       29.95S
CROOKSTON      PTSUNNY   79  52  38 S8        29.91S
STEPHEN NDAWN    N/A     79  48  34 S8          N/A
GREENBUSH NDAW   N/A     75  50  41 S3          N/A
$$
  *****  WEATHER ACROSS CENTRAL AND WEST MINNESOTA  *****

CITY           SKY/WX    TMP DP  RH WIND       PRES   REMARKS
FOSSTON        SUNNY     79  54  41 SE3       29.94F
BEMIDJI        PTSUNNY   75  42  30 CALM      29.95S
PARK RAPIDS    CLOUDY    77  51  40 W6        29.94F
6HR MIN TEMP:  58; 6HR MAX TEMP:  81;

ELBOW LAKE     FAIR      81  51  35 SE12G17   29.93F
6HR MIN TEMP:  58; 6HR MAX TEMP:  81;

WADENA         SUNNY     79  48  34 SW6       29.95S
DETROIT LAKES  SUNNY     79  50  36 W3        29.94F
MOORHEAD       SUNNY     81  50  34 S7        29.90F
FERGUS FALLS   SUNNY     81  50  34 S10G16    29.88F
MORRIS MN      SUNNY     79  52  38 S16       29.92F
STAPLES        SUNNY     79  48  34 S7        29.95F
$$
  *****  WEATHER ELSEWHERE ACROSS MINNESOTA  *****

CITY           SKY/WX    TMP DP  RH WIND       PRES   REMARKS
DULUTH         MOSUNNY   77  46  33 SW8       29.97S
6HR MIN TEMP:  58; 6HR MAX TEMP:  77;

INTRNTL FALLS  PTSUNNY   71  54  54 VRB7      29.95S
6HR MIN TEMP:  50; 6HR MAX TEMP:  74;

ELY            MOSUNNY   73  43  33 W15G23    29.96S
CLOQUET        MOSUNNY   79  41  25 W8        29.96F
WHEATON        SUNNY     84  52  32 SE16G22   29.91F
BRAINERD       SUNNY     79  49  34 SW7       29.96F
6HR MIN TEMP:  55; 6HR MAX TEMP:  79;

HIBBING        SUNNY     75  42  30 W8G20     29.96F
6HR MIN TEMP:  49; 6HR MAX TEMP:  75;

ALEXANDRIA     SUNNY     79  50  36 S9        29.96F
6HR MIN TEMP:  57; 6HR MAX TEMP:  79;

SAINT CLOUD    MOSUNNY   80  50  34 SW8       29.97S
6HR MIN TEMP:  55; 6HR MAX TEMP:  80;

MINNEAPOLIS    PTSUNNY   79  51  37 SW8       29.99F
6HR MIN TEMP:  62; 6HR MAX TEMP:  81;

$$

  *****  WEATHER ACROSS SOUTH DAKOTA  *****

CITY           SKY/WX    TMP DP  RH WIND       PRES   REMARKS
SIOUX FALLS    PTSUNNY   77  59  53 S12       29.93F
6HR MIN TEMP:  62; 6HR MAX TEMP:  77;

BROOKINGS      MOSUNNY   75  56  51 S17G24    29.93F
WATERTOWN      MOSUNNY   79  51  37 S16G25    29.92F
6HR MIN TEMP:  61; 6HR MAX TEMP:  79;

HURON          PTSUNNY   75  59  57 S12G24    29.88F
6HR MIN TEMP:  61; 6HR MAX TEMP:  76; 6HR PCP: TRACE;

SISSETON         N/A     85  52  32 S17G24    29.87F
ABERDEEN       MOSUNNY   80  56  43 S16       29.89F
6HR MIN TEMP:  57; 6HR MAX TEMP:  80;

MITCHELL       MOSUNNY   77  61  57 S17       29.89F
PIERRE         MOSUNNY   77  60  55 S20G25    29.81F
6HR MIN TEMP:  60; 6HR MAX TEMP:  78;

MOBRIDGE       CLOUDY    76  56  49 S17G25    29.82S
RAPID CITY     CLOUDY    78  54  43 E10       29.83F
6HR MIN TEMP:  49; 6HR MAX TEMP:  78;

$$

  *****  SOME WEATHER IN NEARBY STATES *****

CITY           SKY/WX    TMP DP  RH WIND       PRES   REMARKS
GLASGOW MT     CLOUDY    62  46  55 NW22      29.94R
6HR MIN TEMP:  57; 6HR MAX TEMP:  63; 6HR PCP: TRACE;

GREAT FALLS MT PTSUNNY   54  37  52 NW17G26   30.13R
6HR MIN TEMP:  43; 6HR MAX TEMP:  57; 6HR PCP:  0.05;

CHEYENNE WY    TSTM      62  42  47 N14G25    30.05S
6HR MIN TEMP:  45; 6HR MAX TEMP:  71; 6HR PCP: TRACE;

SCOTTSBLUFF NE SUNNY     79  43  27 NW16      29.94F
6HR MIN TEMP:  49; 6HR MAX TEMP:  79;

OMAHA NE       CLOUDY    82  60  47 S7        29.96F
6HR MIN TEMP:  63; 6HR MAX TEMP:  82;

DES MOINES IA  PTSUNNY   85  60  42 S10G18    29.98F
6HR MIN TEMP:  67; 6HR MAX TEMP:  85;

DAVENPORT IA   SUNNY     80  55  42 NW9       30.04F
6HR MIN TEMP:  67; 6HR MAX TEMP:  80; 6HR PCP: TRACE;

CHICAGO IL     MOSUNNY   84  60  44 NW12      30.00F
6HR MIN TEMP:  68; 6HR MAX TEMP:  84;

EAU CLAIRE WI  MOSUNNY   78  50  37 S7        30.00F
6HR MIN TEMP:  59; 6HR MAX TEMP:  79;

LA CROSSE WI   SUNNY     81  49  32 E6        30.00F
6HR MIN TEMP:  60; 6HR MAX TEMP:  81;

$$

  *****  SOME NATIONAL WEATHER *****

CITY           SKY/WX    TMP DP  RH WIND       PRES   REMARKS
LA GUARDIA NY  CLOUDY    81  72  74 S8        29.95S
6HR MIN TEMP:  69; 6HR MAX TEMP:  81; 6HR PCP: TRACE;

RALEIGH NC     PTSUNNY   81  71  71 NE9G16    29.96F
6HR MIN TEMP:  68; 6HR MAX TEMP:  82;

ATLANTA GA     PTSUNNY   90  61  37 W9        30.00F HX  90
6HR MIN TEMP:  71; 6HR MAX TEMP:  90;

NEW ORLEANS LA PTSUNNY   91  70  49 VRB5      30.01F HX  96
6HR MIN TEMP:  75; 6HR MAX TEMP:  91;

OKLAHOMA CITY  PTSUNNY   76  65  68 S7        30.00F
6HR MIN TEMP:  66; 6HR MAX TEMP:  77;

ALBUQUERQUE NM PTSUNNY   76  22  13 W7        30.10F
6HR MIN TEMP:  56; 6HR MAX TEMP:  76;

SALT LAKE CITY MOSUNNY   74  39  28 CALM      30.09F
6HR MIN TEMP:  56; 6HR MAX TEMP:  74;

LOS ANGELES CA CLOUDY   C1F1C2F2C3F3C4F4C5F5C6F6C7F7C8F8C9F9CaFaCbFbCcFcCd!


USA.gov is the U.S. government's official web portal to all federal, state and local government web resources and services.